Time,TemperatureF,DewpointF,PressureIn,WindDirection,WindDirectionDegrees,WindSpeedMPH,WindSpeedGustMPH,Humidity,HourlyPrecipIn,Conditions,Clouds,dailyrainin,SolarRadiationWatts/m^2,SoftwareType,DateUTC
2013-04-03 00:05:00,21.3,14.9,30.35,NE,42,0.0,0.0,76,0.00,,SKC,0.00,0.00,VWS V14.00,2013-04-03 05:05:00,
2013-04-03 00:10:00,21.2,14.8,30.35,NE,42,0.0,0.0,76,0.00,,SKC,0.00,0.00,VWS V14.00,2013-04-03 05:10:00,
2013-04-03 00:15:00,21.0,14.6,30.35,NE,42,0.0,0.0,76,0.00,,SKC,0.00,0.00,VWS V14.00,2013-04-03 05:15:00,
2013-04-03 00:20:00,20.9,14.5,30.35,NE,42,0.0,0.0,76,0.00,,SKC,0.00,0.00,VWS V14.00,2013-04-03 05:20:00,
2013-04-03 00:25:00,20.8,14.4,30.35,NE,42,0.0,0.0,76,0.00,,SKC,0.00,0.00,VWS V14.00,2013-04-03 05:25:00,
2013-04-03 00:30:00,20.6,14.6,30.35,NE,42,0.0,0.0,77,0.00,,SKC,0.00,0.00,VWS V14.00,2013-04-03 05:30:00,
2013-04-03 00:35:00,20.4,14.9,30.35,NE,42,0.0,0.0,79,0.00,,SKC,0.00,0.00,VWS V14.00,2013-04-03 05:35:00,
2013-04-03 00:40:00,20.3,15.1,30.35,NE,42,0.0,0.0,80,0.00,,SKC,0.00,0.00,VWS V14.00,2013-04-03 05:40:00,
2013-04-03 00:45:00,20.2,15.3,30.35,NE,42,0.0,0.0,81,0.00,,SKC,0.00,0.00,VWS V14.00,2013-04-03 05:45:00,
2013-04-03 00:50:00,20.1,15.5,30.35,NE,42,0.0,0.0,82,0.00,,SKC,0.00,0.00,VWS V14.00,2013-04-03 05:50:00,
2013-04-03 00:56:00,20.0,15.7,30.35,NE,42,0.0,0.0,83,0.00,,SKC,0.00,0.00,VWS V14.00,2013-04-03 05:56:00,
2013-04-03 01:01:00,20.1,16.0,30.35,NE,42,0.0,0.0,84,0.00,,SKC,0.00,0.00,VWS V14.00,2013-04-03 06:01:00,
2013-04-03 01:06:00,20.1,16.0,30.35,NE,42,0.0,0.0,84,0.00,,SKC,0.00,0.00,VWS V14.00,2013-04-03 06:06:00,
2013-04-03 01:11:00,20.2,16.4,30.35,NE,42,0.0,0.0,85,0.00,,SKC,0.00,0.00,VWS V14.00,2013-04-03 06:11:00,
2013-04-03 01:16:00,20.2,16.4,30.35,NE,42,0.0,0.0,85,0.00,,SKC,0.00,0.00,VWS V14.00,2013-04-03 06:16:00,
2013-04-03 01:21:00,20.2,16.4,30.35,NE,42,0.0,0.0,85,0.00,,SKC,0.00,0.00,VWS V14.00,2013-04-03 06:21:00,
2013-04-03 01:26:00,20.2,16.7,30.35,NE,42,0.0,0.0,86,0.00,,SKC,0.00,0.00,VWS V14.00,2013-04-03 06:26:00,
2013-04-03 01:31:00,20.1,16.6,30.35,NE,42,0.0,0.0,86,0.00,,SKC,0.00,0.00,VWS V14.00,2013-04-03 06:31:00,
2013-04-03 01:36:00,20.1,16.6,30.35,NE,42,0.0,0.0,86,0.00,,SKC,0.00,0.00,VWS V14.00,2013-04-03 06:36:00,
2013-04-03 01:41:00,20.0,16.2,30.35,NE,42,0.0,0.0,85,0.00,,SKC,0.00,0.00,VWS V14.00,2013-04-03 06:41:00,
2013-04-03 01:46:00,19.9,16.1,30.35,NE,42,0.0,0.0,85,0.00,,SKC,0.00,0.00,VWS V14.00,2013-04-03 06:46:00,
2013-04-03 01:53:00,19.8,16.3,30.36,NE,42,0.0,0.0,86,0.00,,SKC,0.00,0.00,VWS V14.00,2013-04-03 06:53:00,
2013-04-03 01:58:00,19.7,16.2,30.35,NE,42,0.0,0.0,86,0.00,,SKC,0.00,0.00,VWS V14.00,2013-04-03 06:58:00,
2013-04-03 02:03:00,19.6,16.1,30.35,NE,42,0.0,0.0,86,0.00,,SKC,0.00,0.00,VWS V14.00,2013-04-03 07:03:00,
2013-04-03 02:08:00,19.6,16.1,30.35,NE,42,0.0,0.0,86,0.00,,SKC,0.00,0.00,VWS V14.00,2013-04-03 07:08:00,
2013-04-03 02:13:00,19.6,16.1,30.35,NE,42,0.0,0.0,86,0.00,,SKC,0.00,0.00,VWS V14.00,2013-04-03 07:13:00,
2013-04-03 02:18:00,19.6,16.1,30.35,NE,42,0.0,0.0,86,0.00,,SKC,0.00,0.00,VWS V14.00,2013-04-03 07:18:00,
2013-04-03 02:23:00,19.6,16.1,30.35,NE,42,0.0,0.0,86,0.00,,SKC,0.00,0.00,VWS V14.00,2013-04-03 07:23:00,
2013-04-03 02:28:00,19.6,16.1,30.35,NE,42,0.0,0.0,86,0.00,,SKC,0.00,0.00,VWS V14.00,2013-04-03 07:28:00,
2013-04-03 02:34:00,19.0,15.2,30.35,NE,42,0.0,0.0,85,0.00,,SKC,0.00,0.00,VWS V14.00,2013-04-03 07:34:00,
2013-04-03 02:39:00,19.0,15.2,30.34,NE,42,0.0,0.0,85,0.00,,SKC,0.00,0.00,VWS V14.00,2013-04-03 07:39:00,
2013-04-03 02:44:00,19.0,15.0,30.35,NE,42,0.0,0.0,84,0.00,,SKC,0.00,0.00,VWS V14.00,2013-04-03 07:44:00,
2013-04-03 02:49:00,18.9,14.6,30.34,NE,42,0.0,1.0,83,0.00,,SKC,0.00,0.00,VWS V14.00,2013-04-03 07:49:00,
2013-04-03 02:54:00,18.7,14.4,30.34,NE,42,0.0,0.0,83,0.00,,SKC,0.00,0.00,VWS V14.00,2013-04-03 07:54:00,
2013-04-03 02:59:00,18.5,14.2,30.34,NE,42,0.0,0.0,83,0.00,,SKC,0.00,0.00,VWS V14.00,2013-04-03 07:59:00,
2013-04-03 03:04:00,18.4,14.1,30.34,NE,42,0.0,0.0,83,0.00,,SKC,0.00,0.00,VWS V14.00,2013-04-03 08:04:00,
2013-04-03 03:09:00,18.3,14.0,30.34,NE,42,0.0,0.0,83,0.00,,SKC,0.00,0.00,VWS V14.00,2013-04-03 08:09:00,
2013-04-03 03:14:00,18.2,14.2,30.34,NE,42,0.0,0.0,84,0.00,,SKC,0.00,0.00,VWS V14.00,2013-04-03 08:14:00,
2013-04-03 03:19:00,18.0,14.0,30.33,NE,42,0.0,0.0,84,0.00,,SKC,0.00,0.00,VWS V14.00,2013-04-03 08:19:00,
2013-04-03 03:24:00,17.9,13.9,30.33,NE,42,1.0,1.0,84,0.00,,SKC,0.00,0.00,VWS V14.00,2013-04-03 08:24:00,
2013-04-03 03:29:00,17.8,14.1,30.34,NE,42,1.0,1.0,85,0.00,,SKC,0.00,0.00,VWS V14.00,2013-04-03 08:29:00,
2013-04-03 03:34:00,17.8,14.3,30.34,NE,42,1.0,2.0,86,0.00,,SKC,0.00,0.00,VWS V14.00,2013-04-03 08:34:00,
2013-04-03 03:39:00,17.9,14.4,30.33,NE,53,1.0,1.0,86,0.00,,SKC,0.00,0.00,VWS V14.00,2013-04-03 08:39:00,
2013-04-03 03:44:00,18.1,14.9,30.33,SE,141,2.0,2.0,87,0.00,,SKC,0.00,0.00,VWS V14.00,2013-04-03 08:44:00,
2013-04-03 03:50:00,18.4,15.2,30.33,SSE,153,3.0,3.0,87,0.00,,SKC,0.00,0.00,VWS V14.00,2013-04-03 08:50:00,
2013-04-03 03:55:00,18.8,15.6,30.33,SSE,154,2.0,3.0,87,0.00,,SKC,0.00,0.00,VWS V14.00,2013-04-03 08:55:00,
2013-04-03 04:00:00,19.2,16.0,30.33,SE,146,2.0,4.0,87,0.00,,SKC,0.00,0.00,VWS V14.00,2013-04-03 09:00:00,
2013-04-03 04:07:00,19.6,16.1,30.33,SSE,153,2.0,3.0,86,0.00,,SKC,0.00,0.00,VWS V14.00,2013-04-03 09:07:00,
2013-04-03 04:12:00,19.8,16.0,30.33,SSE,153,1.0,4.0,85,0.00,,SKC,0.00,0.00,VWS V14.00,2013-04-03 09:12:00,
2013-04-03 04:17:00,19.9,16.1,30.33,SSE,155,2.0,3.0,85,0.00,,SKC,0.00,0.00,VWS V14.00,2013-04-03 09:17:00,
2013-04-03 04:22:00,19.9,16.1,30.33,SSE,155,3.0,3.0,85,0.00,,SKC,0.00,0.00,VWS V14.00,2013-04-03 09:22:00,
2013-04-03 04:27:00,19.8,16.0,30.33,SSE,155,3.0,3.0,85,0.00,,SKC,0.00,0.00,VWS V14.00,2013-04-03 09:27:00,
2013-04-03 04:32:00,19.6,15.8,30.33,SSE,165,3.0,4.0,85,0.00,,SKC,0.00,0.00,VWS V14.00,2013-04-03 09:32:00,
2013-04-03 04:37:00,19.5,15.7,30.33,SSE,165,2.0,3.0,85,0.00,,SKC,0.00,0.00,VWS V14.00,2013-04-03 09:37:00,
2013-04-03 04:42:00,19.5,16.0,30.34,SSE,165,2.0,3.0,86,0.00,,SKC,0.00,0.00,VWS V14.00,2013-04-03 09:42:00,
2013-04-03 04:47:00,19.5,16.0,30.34,SSE,165,2.0,3.0,86,0.00,,SKC,0.00,0.00,VWS V14.00,2013-04-03 09:47:00,
2013-04-03 04:52:00,19.5,16.0,30.34,SSE,165,2.0,3.0,86,0.00,,SKC,0.00,0.00,VWS V14.00,2013-04-03 09:52:00,
2013-04-03 04:57:00,19.6,16.4,30.34,SSE,165,2.0,4.0,87,0.00,,SKC,0.00,0.00,VWS V14.00,2013-04-03 09:57:00,
2013-04-03 05:02:00,19.7,16.2,30.34,SSE,165,3.0,3.0,86,0.00,,SKC,0.00,0.00,VWS V14.00,2013-04-03 10:02:00,
2013-04-03 05:07:00,19.7,16.2,30.33,SSE,165,3.0,4.0,86,0.00,,SKC,0.00,0.00,VWS V14.00,2013-04-03 10:07:00,
2013-04-03 05:12:00,19.7,16.2,30.33,SSE,166,2.0,3.0,86,0.00,,SKC,0.00,0.00,VWS V14.00,2013-04-03 10:12:00,
2013-04-03 05:17:00,19.7,16.2,30.33,SSE,167,3.0,4.0,86,0.00,,SKC,0.00,0.00,VWS V14.00,2013-04-03 10:17:00,
2013-04-03 05:22:00,19.7,16.2,30.33,South,169,2.0,4.0,86,0.00,,SKC,0.00,0.00,VWS V14.00,2013-04-03 10:22:00,
2013-04-03 05:27:00,19.6,16.1,30.33,South,169,2.0,4.0,86,0.00,,SKC,0.00,0.00,VWS V14.00,2013-04-03 10:27:00,
2013-04-03 05:32:00,19.6,16.1,30.33,South,169,2.0,4.0,86,0.00,,SKC,0.00,0.00,VWS V14.00,2013-04-03 10:32:00,
2013-04-03 05:37:00,19.6,16.1,30.33,South,183,4.0,5.0,86,0.00,,SKC,0.00,0.00,VWS V14.00,2013-04-03 10:37:00,
2013-04-03 05:42:00,19.7,16.2,30.33,South,182,4.0,5.0,86,0.00,,SKC,0.00,0.00,VWS V14.00,2013-04-03 10:42:00,
2013-04-03 05:47:00,19.7,16.2,30.33,South,180,4.0,5.0,86,0.00,,SKC,0.00,0.00,VWS V14.00,2013-04-03 10:47:00,
2013-04-03 05:53:00,19.7,16.2,30.33,South,169,2.0,4.0,86,0.00,,SKC,0.00,0.00,VWS V14.00,2013-04-03 10:53:00,
2013-04-03 05:58:00,19.8,16.3,30.33,South,182,4.0,5.0,86,0.00,,SKC,0.00,0.00,VWS V14.00,2013-04-03 10:58:00,
2013-04-03 06:03:00,19.8,16.0,30.33,South,179,3.0,5.0,85,0.00,,SKC,0.00,0.00,VWS V14.00,2013-04-03 11:03:00,
2013-04-03 06:08:00,19.9,16.1,30.33,South,176,3.0,5.0,85,0.00,,SKC,0.00,0.00,VWS V14.00,2013-04-03 11:08:00,
2013-04-03 06:13:00,19.9,16.1,30.33,South,181,3.0,5.0,85,0.00,,SKC,0.00,0.00,VWS V14.00,2013-04-03 11:13:00,
2013-04-03 06:18:00,19.9,16.1,30.33,South,181,3.0,3.0,85,0.00,,SKC,0.00,0.00,VWS V14.00,2013-04-03 11:18:00,
2013-04-03 06:23:00,19.9,16.1,30.33,South,181,3.0,3.0,85,0.00,,SKC,0.00,0.00,VWS V14.00,2013-04-03 11:23:00,
2013-04-03 06:28:00,19.9,16.1,30.32,South,181,3.0,3.0,85,0.00,,SKC,0.00,0.00,VWS V14.00,2013-04-03 11:28:00,
2013-04-03 06:33:00,19.9,16.1,30.32,South,181,3.0,3.0,85,0.00,,SKC,0.00,0.00,VWS V14.00,2013-04-03 11:33:00,
2013-04-03 06:38:00,19.9,16.1,30.32,South,181,3.0,3.0,85,0.00,,SKC,0.00,0.00,VWS V14.00,2013-04-03 11:38:00,
2013-04-03 06:43:00,19.8,15.5,30.33,South,185,3.0,4.0,83,0.00,,SKC,0.00,0.00,VWS V14.00,2013-04-03 11:43:00,
2013-04-03 06:48:00,19.8,15.2,30.32,SSE,163,2.0,4.0,82,0.00,,SKC,0.00,0.00,VWS V14.00,2013-04-03 11:48:00,
2013-04-03 06:53:00,19.7,15.1,30.32,South,185,3.0,3.0,82,0.00,,SKC,0.00,0.00,VWS V14.00,2013-04-03 11:53:00,
2013-04-03 06:58:00,19.7,15.1,30.32,South,184,2.0,2.0,82,0.00,,SKC,0.00,5.00,VWS V14.00,2013-04-03 11:58:00,
2013-04-03 07:03:00,19.8,15.2,30.32,South,179,3.0,3.0,82,0.00,,SKC,0.00,9.00,VWS V14.00,2013-04-03 12:03:00,
2013-04-03 07:08:00,19.8,14.9,30.33,South,173,3.0,3.0,81,0.00,,SKC,0.00,12.00,VWS V14.00,2013-04-03 12:08:00,
2013-04-03 07:13:00,19.9,15.0,30.33,South,182,3.0,3.0,81,0.00,,SKC,0.00,16.00,VWS V14.00,2013-04-03 12:13:00,
2013-04-03 07:18:00,20.0,15.1,30.32,South,186,3.0,3.0,81,0.00,,SKC,0.00,21.00,VWS V14.00,2013-04-03 12:18:00,
2013-04-03 07:23:00,20.1,15.2,30.32,South,185,5.0,5.0,81,0.00,,SKC,0.00,28.00,VWS V14.00,2013-04-03 12:23:00,
2013-04-03 07:28:00,20.3,15.4,30.32,South,177,3.0,3.0,81,0.00,,SKC,0.00,37.00,VWS V14.00,2013-04-03 12:28:00,
2013-04-03 07:33:00,20.6,15.4,30.32,South,187,5.0,5.0,80,0.00,,SKC,0.00,51.00,VWS V14.00,2013-04-03 12:33:00,
2013-04-03 07:38:00,20.9,15.7,30.33,SSW,201,3.0,5.0,80,0.00,,SKC,0.00,65.00,VWS V14.00,2013-04-03 12:38:00,
2013-04-03 07:43:00,21.2,16.0,30.33,South,174,5.0,5.0,80,0.00,,SKC,0.00,79.00,VWS V14.00,2013-04-03 12:43:00,
2013-04-03 07:48:00,21.6,16.4,30.33,SSW,211,6.0,6.0,80,0.00,,SKC,0.00,91.00,VWS V14.00,2013-04-03 12:48:00,
2013-04-03 07:54:00,22.1,16.9,30.33,SSW,202,6.0,8.0,80,0.00,,SKC,0.00,107.00,VWS V14.00,2013-04-03 12:54:00,
2013-04-03 07:59:00,22.5,17.3,30.33,SW,214,5.0,6.0,80,0.00,,SKC,0.00,125.00,VWS V14.00,2013-04-03 12:59:00,
2013-04-03 08:04:00,23.1,17.9,30.33,South,190,6.0,10.0,80,0.00,,SKC,0.00,141.00,VWS V14.00,2013-04-03 13:04:00,
2013-04-03 08:09:00,23.8,18.5,30.33,SSW,198,10.0,11.0,80,0.00,,SKC,0.00,153.00,VWS V14.00,2013-04-03 13:09:00,
2013-04-03 08:14:00,24.4,18.8,30.33,SSW,205,7.0,8.0,79,0.00,,SKC,0.00,172.00,VWS V14.00,2013-04-03 13:14:00,
2013-04-03 08:19:00,25.2,19.3,30.33,SSW,205,7.0,12.0,78,0.00,,SKC,0.00,192.00,VWS V14.00,2013-04-03 13:19:00,
2013-04-03 08:24:00,25.7,19.8,30.33,SSW,203,9.0,12.0,78,0.00,,SKC,0.00,209.00,VWS V14.00,2013-04-03 13:24:00,
2013-04-03 08:29:00,26.2,20.0,30.33,SSW,204,13.0,17.0,77,0.00,,SKC,0.00,230.00,VWS V14.00,2013-04-03 13:29:00,
2013-04-03 08:34:00,26.7,20.5,30.33,SSW,204,12.0,12.0,77,0.00,,SKC,0.00,244.00,VWS V14.00,2013-04-03 13:34:00,
2013-04-03 08:39:00,27.0,20.8,30.33,SSW,211,13.0,18.0,77,0.00,,SKC,0.00,265.00,VWS V14.00,2013-04-03 13:39:00,
2013-04-03 08:44:00,27.3,20.8,30.33,SW,225,6.0,14.0,76,0.00,,SKC,0.00,278.00,VWS V14.00,2013-04-03 13:44:00,
2013-04-03 08:49:00,27.7,21.1,30.33,SSW,193,7.0,11.0,76,0.00,,SKC,0.00,294.00,VWS V14.00,2013-04-03 13:49:00,
2013-04-03 08:54:00,28.0,21.4,30.33,SSW,202,11.0,14.0,76,0.00,,SKC,0.00,315.00,VWS V14.00,2013-04-03 13:54:00,
2013-04-03 08:59:00,28.3,21.7,30.32,SW,223,11.0,15.0,76,0.00,,SKC,0.00,327.00,VWS V14.00,2013-04-03 13:59:00,
2013-04-03 09:04:00,28.4,21.8,30.32,SSW,207,12.0,12.0,76,0.00,,SKC,0.00,334.00,VWS V14.00,2013-04-03 14:04:00,
2013-04-03 09:10:00,29.0,22.1,30.32,SSW,211,11.0,16.0,75,0.00,,SKC,0.00,366.00,VWS V14.00,2013-04-03 14:10:00,
2013-04-03 09:15:00,29.3,22.4,30.31,SSW,192,7.0,11.0,75,0.00,,SKC,0.00,381.00,VWS V14.00,2013-04-03 14:15:00,
2013-04-03 09:20:00,29.7,22.4,30.31,South,182,13.0,18.0,74,0.00,,SKC,0.00,397.00,VWS V14.00,2013-04-03 14:20:00,
2013-04-03 09:25:00,30.0,23.0,30.31,SSW,201,12.0,14.0,75,0.00,,SKC,0.00,413.00,VWS V14.00,2013-04-03 14:25:00,
2013-04-03 09:30:00,30.3,23.3,30.30,SSW,202,9.0,13.0,75,0.00,,SKC,0.00,425.00,VWS V14.00,2013-04-03 14:30:00,
2013-04-03 09:35:00,30.6,23.0,30.30,SW,216,11.0,16.0,73,0.00,,SKC,0.00,443.00,VWS V14.00,2013-04-03 14:35:00,
2013-04-03 09:40:00,31.0,23.7,30.30,SSW,213,10.0,14.0,74,0.00,,SKC,0.00,459.00,VWS V14.00,2013-04-03 14:40:00,
2013-04-03 09:45:00,31.3,23.7,30.30,SW,217,6.0,14.0,73,0.00,,SKC,0.00,475.00,VWS V14.00,2013-04-03 14:45:00,
2013-04-03 09:50:00,31.6,23.6,30.29,SSW,206,9.0,16.0,72,0.00,,SKC,0.00,487.00,VWS V14.00,2013-04-03 14:50:00,
2013-04-03 09:55:00,31.9,23.9,30.29,South,191,10.0,13.0,72,0.00,,SKC,0.00,503.00,VWS V14.00,2013-04-03 14:55:00,
2013-04-03 10:00:00,32.1,24.1,30.29,SW,222,9.0,14.0,72,0.00,,SKC,0.00,517.00,VWS V14.00,2013-04-03 15:00:00,
2013-04-03 10:05:00,32.4,24.4,30.29,SSW,205,11.0,17.0,72,0.00,,SKC,0.00,531.00,VWS V14.00,2013-04-03 15:05:00,
2013-04-03 10:10:00,32.6,24.6,30.29,South,188,11.0,18.0,72,0.00,,SKC,0.00,541.00,VWS V14.00,2013-04-03 15:10:00,
2013-04-03 10:15:00,32.8,24.5,30.28,South,175,16.0,18.0,71,0.00,,SKC,0.00,555.00,VWS V14.00,2013-04-03 15:15:00,
2013-04-03 10:20:00,32.9,24.9,30.28,South,182,14.0,15.0,72,0.00,,SKC,0.00,571.00,VWS V14.00,2013-04-03 15:20:00,
2013-04-03 10:25:00,33.0,24.6,30.28,SSW,198,14.0,18.0,71,0.00,,SKC,0.00,584.00,VWS V14.00,2013-04-03 15:25:00,
2013-04-03 10:30:00,33.1,25.1,30.28,SSW,198,11.0,16.0,72,0.00,,SKC,0.00,596.00,VWS V14.00,2013-04-03 15:30:00,
2013-04-03 10:35:00,33.4,25.7,30.28,South,174,16.0,20.0,73,0.00,,SKC,0.00,606.00,VWS V14.00,2013-04-03 15:35:00,
2013-04-03 10:40:00,33.6,25.2,30.28,SSW,192,15.0,19.0,71,0.00,,SKC,0.00,621.00,VWS V14.00,2013-04-03 15:40:00,
2013-04-03 10:46:00,33.9,25.8,30.28,South,179,11.0,13.0,72,0.00,,SKC,0.00,629.00,VWS V14.00,2013-04-03 15:46:00,
2013-04-03 10:51:00,34.1,26.0,30.28,SW,220,12.0,14.0,72,0.00,,SKC,0.00,645.00,VWS V14.00,2013-04-03 15:51:00,
2013-04-03 10:56:00,34.3,26.2,30.28,SSW,204,10.0,17.0,72,0.00,,SKC,0.00,652.00,VWS V14.00,2013-04-03 15:56:00,
2013-04-03 11:03:00,34.6,26.2,30.27,SW,229,7.0,17.0,71,0.00,,SKC,0.00,668.00,VWS V14.00,2013-04-03 16:03:00,
2013-04-03 11:08:00,34.7,26.6,30.26,SSW,211,6.0,17.0,72,0.00,,SKC,0.00,682.00,VWS V14.00,2013-04-03 16:08:00,
2013-04-03 11:13:00,34.9,26.1,30.26,SSE,165,9.0,21.0,70,0.00,,SKC,0.00,691.00,VWS V14.00,2013-04-03 16:13:00,
2013-04-03 11:18:00,35.0,26.9,30.26,South,182,12.0,22.0,72,0.00,,SKC,0.00,700.00,VWS V14.00,2013-04-03 16:18:00,
2013-04-03 11:23:00,35.0,26.6,30.25,SSW,195,18.0,23.0,71,0.00,,SKC,0.00,708.00,VWS V14.00,2013-04-03 16:23:00,
2013-04-03 11:29:00,35.0,26.6,30.25,South,179,11.0,13.0,71,0.00,,SKC,0.00,715.00,VWS V14.00,2013-04-03 16:29:00,
2013-04-03 11:34:00,35.1,27.0,30.25,SSW,198,10.0,17.0,72,0.00,,SKC,0.00,728.00,VWS V14.00,2013-04-03 16:34:00,
2013-04-03 11:39:00,35.3,27.2,30.25,SSW,196,11.0,13.0,72,0.00,,SKC,0.00,733.00,VWS V14.00,2013-04-03 16:39:00,
2013-04-03 11:44:00,35.4,27.0,30.24,South,172,17.0,19.0,71,0.00,,SKC,0.00,745.00,VWS V14.00,2013-04-03 16:44:00,
2013-04-03 11:49:00,35.4,27.3,30.24,South,184,15.0,16.0,72,0.00,,SKC,0.00,754.00,VWS V14.00,2013-04-03 16:49:00,
2013-04-03 11:54:00,35.5,27.7,30.24,South,171,17.0,21.0,73,0.00,,SKC,0.00,759.00,VWS V14.00,2013-04-03 16:54:00,
2013-04-03 11:59:00,35.6,27.5,30.24,SSW,199,23.0,23.0,72,0.00,,SKC,0.00,770.00,VWS V14.00,2013-04-03 16:59:00,
2013-04-03 12:04:00,35.6,27.5,30.24,SSW,211,13.0,17.0,72,0.00,,SKC,0.00,777.00,VWS V14.00,2013-04-03 17:04:00,
2013-04-03 12:09:00,35.7,27.9,30.24,SSW,202,12.0,13.0,73,0.00,,SKC,0.00,784.00,VWS V14.00,2013-04-03 17:09:00,
2013-04-03 12:14:00,35.9,28.1,30.24,SSW,196,15.0,24.0,73,0.00,,SKC,0.00,793.00,VWS V14.00,2013-04-03 17:14:00,
2013-04-03 12:20:00,36.0,28.2,30.23,South,169,10.0,21.0,73,0.00,,SKC,0.00,795.00,VWS V14.00,2013-04-03 17:20:00,
2013-04-03 12:25:00,36.1,28.6,30.23,SSW,203,14.0,19.0,74,0.00,,SKC,0.00,802.00,VWS V14.00,2013-04-03 17:25:00,
2013-04-03 12:30:00,36.3,28.5,30.23,SW,219,10.0,20.0,73,0.00,,SKC,0.00,809.00,VWS V14.00,2013-04-03 17:30:00,
2013-04-03 12:35:00,36.5,29.0,30.22,SSW,202,19.0,22.0,74,0.00,,SKC,0.00,812.00,VWS V14.00,2013-04-03 17:35:00,
2013-04-03 12:40:00,36.6,29.1,30.22,South,186,14.0,21.0,74,0.00,,SKC,0.00,814.00,VWS V14.00,2013-04-03 17:40:00,
2013-04-03 12:45:00,37.0,29.5,30.22,SW,229,12.0,24.0,74,0.00,,SKC,0.00,819.00,VWS V14.00,2013-04-03 17:45:00,
2013-04-03 12:50:00,37.2,29.7,30.22,SW,219,11.0,20.0,74,0.00,,SKC,0.00,823.00,VWS V14.00,2013-04-03 17:50:00,
2013-04-03 12:55:00,37.5,29.6,30.21,SSW,209,15.0,22.0,73,0.00,,SKC,0.00,826.00,VWS V14.00,2013-04-03 17:55:00,
2013-04-03 13:00:00,37.5,29.6,30.21,SW,219,14.0,18.0,73,0.00,,SKC,0.00,830.00,VWS V14.00,2013-04-03 18:00:00,
2013-04-03 13:05:00,37.6,30.1,30.21,SSW,200,14.0,21.0,74,0.00,,SKC,0.00,830.00,VWS V14.00,2013-04-03 18:05:00,
2013-04-03 13:11:00,37.8,29.9,30.21,SSW,201,17.0,24.0,73,0.00,,SKC,0.00,831.00,VWS V14.00,2013-04-03 18:11:00,
2013-04-03 13:16:00,37.9,30.4,30.20,SSW,199,15.0,19.0,74,0.00,,SKC,0.00,833.00,VWS V14.00,2013-04-03 18:16:00,
2013-04-03 13:21:00,38.1,30.6,30.20,SSW,197,15.0,21.0,74,0.00,,SKC,0.00,833.00,VWS V14.00,2013-04-03 18:21:00,
2013-04-03 13:26:00,38.3,30.8,30.20,SSW,211,7.0,23.0,74,0.00,,SKC,0.00,833.00,VWS V14.00,2013-04-03 18:26:00,
2013-04-03 13:31:00,38.5,31.0,30.20,SSW,202,12.0,22.0,74,0.00,,SKC,0.00,833.00,VWS V14.00,2013-04-03 18:31:00,
2013-04-03 13:38:00,38.8,30.6,30.19,SW,214,22.0,22.0,72,0.00,,SKC,0.00,835.00,VWS V14.00,2013-04-03 18:38:00,
2013-04-03 13:43:00,39.0,31.1,30.19,SW,231,8.0,21.0,73,0.00,,SKC,0.00,833.00,VWS V14.00,2013-04-03 18:43:00,
2013-04-03 13:49:00,39.2,31.0,30.19,WSW,239,14.0,14.0,72,0.00,,SKC,0.00,831.00,VWS V14.00,2013-04-03 18:49:00,
2013-04-03 13:54:00,39.4,31.5,30.19,SW,225,17.0,17.0,73,0.00,,SKC,0.00,830.00,VWS V14.00,2013-04-03 18:54:00,
2013-04-03 13:59:00,39.6,31.7,30.19,South,191,10.0,13.0,73,0.00,,SKC,0.00,826.00,VWS V14.00,2013-04-03 18:59:00,
2013-04-03 14:04:00,39.7,31.4,30.18,SSW,211,19.0,19.0,72,0.00,,SKC,0.00,824.00,VWS V14.00,2013-04-03 19:04:00,
2013-04-03 14:13:00,40.1,31.8,30.18,SSW,206,20.0,20.0,72,0.00,,SKC,0.00,817.00,VWS V14.00,2013-04-03 19:13:00,
2013-04-03 14:18:00,40.3,32.0,30.17,South,190,13.0,22.0,72,0.00,,SKC,0.00,814.00,VWS V14.00,2013-04-03 19:18:00,
2013-04-03 14:23:00,40.6,32.6,30.17,SSW,208,14.0,21.0,73,0.00,,SKC,0.00,814.00,VWS V14.00,2013-04-03 19:23:00,
2013-04-03 14:28:00,40.8,32.8,30.17,SW,233,11.0,22.0,73,0.00,,SKC,0.00,807.00,VWS V14.00,2013-04-03 19:28:00,
2013-04-03 14:33:00,41.0,32.7,30.16,SW,215,9.0,23.0,72,0.00,,SKC,0.00,803.00,VWS V14.00,2013-04-03 19:33:00,
2013-04-03 14:38:00,41.2,32.5,30.16,SSW,203,18.0,21.0,71,0.00,,SKC,0.00,795.00,VWS V14.00,2013-04-03 19:38:00,
2013-04-03 14:43:00,41.3,32.6,30.16,SSW,195,11.0,25.0,71,0.00,,SKC,0.00,789.00,VWS V14.00,2013-04-03 19:43:00,
2013-04-03 14:48:00,41.4,32.7,30.16,SW,226,15.0,23.0,71,0.00,,SKC,0.00,784.00,VWS V14.00,2013-04-03 19:48:00,
2013-04-03 14:53:00,41.6,32.9,30.15,SW,219,14.0,26.0,71,0.00,,SKC,0.00,777.00,VWS V14.00,2013-04-03 19:53:00,
2013-04-03 14:58:00,41.7,33.0,30.15,SSW,209,11.0,24.0,71,0.00,,SKC,0.00,770.00,VWS V14.00,2013-04-03 19:58:00,
2013-04-03 15:03:00,41.9,33.2,30.15,SSE,167,16.0,23.0,71,0.00,,SKC,0.00,754.00,VWS V14.00,2013-04-03 20:03:00,
2013-04-03 15:08:00,41.9,33.2,30.15,SSW,213,10.0,24.0,71,0.00,,SKC,0.00,749.00,VWS V14.00,2013-04-03 20:08:00,
2013-04-03 15:13:00,42.0,33.3,30.15,SW,216,13.0,25.0,71,0.00,,SKC,0.00,744.00,VWS V14.00,2013-04-03 20:13:00,
2013-04-03 15:18:00,42.2,33.5,30.15,SW,217,12.0,22.0,71,0.00,,SKC,0.00,733.00,VWS V14.00,2013-04-03 20:18:00,
2013-04-03 15:23:00,42.3,33.6,30.14,SSW,200,14.0,27.0,71,0.00,,SKC,0.00,731.00,VWS V14.00,2013-04-03 20:23:00,
2013-04-03 15:28:00,42.4,34.0,30.14,SW,221,8.0,21.0,72,0.00,,SKC,0.00,714.00,VWS V14.00,2013-04-03 20:28:00,
2013-04-03 15:33:00,42.8,34.4,30.14,South,182,13.0,22.0,72,0.00,,SKC,0.00,703.00,VWS V14.00,2013-04-03 20:33:00,
2013-04-03 15:38:00,42.9,34.2,30.14,SSW,196,19.0,24.0,71,0.00,,SKC,0.00,701.00,VWS V14.00,2013-04-03 20:38:00,
2013-04-03 15:43:00,43.1,34.3,30.13,SSW,211,4.0,19.0,71,0.00,,SKC,0.00,680.00,VWS V14.00,2013-04-03 20:43:00,
2013-04-03 15:48:00,43.5,34.7,30.13,SSW,198,13.0,20.0,71,0.00,,SKC,0.00,671.00,VWS V14.00,2013-04-03 20:48:00,
2013-04-03 15:53:00,43.6,34.8,30.13,SSW,211,16.0,21.0,71,0.00,,SKC,0.00,661.00,VWS V14.00,2013-04-03 20:53:00,
2013-04-03 15:59:00,43.6,34.8,30.12,SW,223,12.0,20.0,71,0.00,,SKC,0.00,650.00,VWS V14.00,2013-04-03 20:59:00,
2013-04-03 16:04:00,43.8,35.0,30.11,South,182,14.0,18.0,71,0.00,,SKC,0.00,638.00,VWS V14.00,2013-04-03 21:04:00,
2013-04-03 16:09:00,43.9,35.5,30.11,SSW,207,15.0,17.0,72,0.00,,SKC,0.00,624.00,VWS V14.00,2013-04-03 21:09:00,
2013-04-03 16:14:00,44.1,35.7,30.11,SW,236,11.0,18.0,72,0.00,,SKC,0.00,608.00,VWS V14.00,2013-04-03 21:14:00,
2013-04-03 16:19:00,44.2,35.8,30.10,SW,217,11.0,21.0,72,0.00,,SKC,0.00,596.00,VWS V14.00,2013-04-03 21:19:00,
2013-04-03 16:25:00,44.4,36.0,30.10,SSW,196,17.0,23.0,72,0.00,,SKC,0.00,580.00,VWS V14.00,2013-04-03 21:25:00,
2013-04-03 16:30:00,44.6,36.2,30.09,South,182,14.0,18.0,72,0.00,,SKC,0.00,570.00,VWS V14.00,2013-04-03 21:30:00,
2013-04-03 16:35:00,44.8,36.3,30.09,South,185,14.0,18.0,72,0.00,,SKC,0.00,555.00,VWS V14.00,2013-04-03 21:35:00,
2013-04-03 16:40:00,44.9,36.4,30.10,South,186,7.0,17.0,72,0.00,,SKC,0.00,540.00,VWS V14.00,2013-04-03 21:40:00,
2013-04-03 16:45:00,44.9,36.4,30.10,SSW,202,11.0,11.0,72,0.00,,SKC,0.00,538.00,VWS V14.00,2013-04-03 21:45:00,
2013-04-03 16:50:00,44.9,36.4,30.09,SSW,202,11.0,11.0,72,0.00,,SKC,0.00,538.00,VWS V14.00,2013-04-03 21:50:00,
2013-04-03 16:55:00,44.9,36.4,30.10,SSW,202,11.0,11.0,72,0.00,,SKC,0.00,538.00,VWS V14.00,2013-04-03 21:55:00,
2013-04-03 17:00:00,44.9,36.4,30.09,SSW,202,11.0,11.0,72,0.00,,SKC,0.00,538.00,VWS V14.00,2013-04-03 22:00:00,
2013-04-03 17:05:00,44.9,36.4,30.09,SSW,202,11.0,11.0,72,0.00,,SKC,0.00,538.00,VWS V14.00,2013-04-03 22:05:00,
2013-04-03 17:10:00,45.8,37.3,30.08,SSW,209,16.0,20.0,72,0.00,,SKC,0.00,450.00,VWS V14.00,2013-04-03 22:10:00,
2013-04-03 17:15:00,45.9,37.0,30.08,SSW,213,7.0,23.0,71,0.00,,SKC,0.00,432.00,VWS V14.00,2013-04-03 22:15:00,
2013-04-03 17:21:00,46.0,37.5,30.08,SW,215,6.0,17.0,72,0.00,,SKC,0.00,418.00,VWS V14.00,2013-04-03 22:21:00,
2013-04-03 17:26:00,46.1,37.6,30.08,SSW,205,5.0,16.0,72,0.00,,SKC,0.00,403.00,VWS V14.00,2013-04-03 22:26:00,
2013-04-03 17:31:00,46.1,37.6,30.07,SSW,205,11.0,18.0,72,0.00,,SKC,0.00,387.00,VWS V14.00,2013-04-03 22:31:00,
2013-04-03 17:36:00,46.1,37.6,30.07,SSW,204,16.0,22.0,72,0.00,,SKC,0.00,373.00,VWS V14.00,2013-04-03 22:36:00,
2013-04-03 17:41:00,46.1,37.6,30.07,SW,225,12.0,15.0,72,0.00,,SKC,0.00,359.00,VWS V14.00,2013-04-03 22:41:00,
2013-04-03 17:46:00,46.1,37.6,30.07,SSW,200,12.0,16.0,72,0.00,,SKC,0.00,343.00,VWS V14.00,2013-04-03 22:46:00,
2013-04-03 17:51:00,46.1,37.6,30.07,SSW,205,10.0,15.0,72,0.00,,SKC,0.00,330.00,VWS V14.00,2013-04-03 22:51:00,
2013-04-03 17:56:00,46.1,37.6,30.06,SSW,205,15.0,18.0,72,0.00,,SKC,0.00,306.00,VWS V14.00,2013-04-03 22:56:00,
2013-04-03 18:01:00,46.1,37.6,30.06,SSW,192,9.0,25.0,72,0.00,,SKC,0.00,290.00,VWS V14.00,2013-04-03 23:01:00,
2013-04-03 18:06:00,46.1,37.9,30.05,South,188,11.0,18.0,73,0.00,,SKC,0.00,279.00,VWS V14.00,2013-04-03 23:06:00,
2013-04-03 18:11:00,46.0,37.8,30.05,SW,224,6.0,15.0,73,0.00,,SKC,0.00,262.00,VWS V14.00,2013-04-03 23:11:00,
2013-04-03 18:16:00,46.0,37.8,30.05,SSW,209,10.0,15.0,73,0.00,,SKC,0.00,244.00,VWS V14.00,2013-04-03 23:16:00,
2013-04-03 18:21:00,46.0,38.2,30.04,SW,216,13.0,19.0,74,0.00,,SKC,0.00,225.00,VWS V14.00,2013-04-03 23:21:00,
2013-04-03 18:26:00,45.9,38.1,30.04,SW,219,12.0,18.0,74,0.00,,SKC,0.00,207.00,VWS V14.00,2013-04-03 23:26:00,
2013-04-03 18:31:00,45.8,38.0,30.03,South,183,12.0,18.0,74,0.00,,SKC,0.00,185.00,VWS V14.00,2013-04-03 23:31:00,
2013-04-03 18:37:00,45.8,38.0,30.03,SSW,205,9.0,17.0,74,0.00,,SKC,0.00,163.00,VWS V14.00,2013-04-03 23:37:00,
2013-04-03 18:42:00,45.8,38.0,30.03,SSW,194,16.0,18.0,74,0.00,,SKC,0.00,151.00,VWS V14.00,2013-04-03 23:42:00,
2013-04-03 18:47:00,45.8,38.0,30.03,SSW,198,18.0,18.0,74,0.00,,SKC,0.00,134.00,VWS V14.00,2013-04-03 23:47:00,
2013-04-03 18:52:00,45.7,37.9,30.02,SSW,211,17.0,22.0,74,0.00,,SKC,0.00,116.00,VWS V14.00,2013-04-03 23:52:00,
2013-04-03 18:57:00,45.6,38.2,30.02,South,172,17.0,19.0,75,0.00,,SKC,0.00,98.00,VWS V14.00,2013-04-03 23:57:00,
2013-04-03 19:02:00,45.6,38.2,30.02,SSW,198,16.0,21.0,75,0.00,,SKC,0.00,76.00,VWS V14.00,2013-04-04 00:02:00,
2013-04-03 19:07:00,45.6,38.2,30.01,SSW,198,14.0,17.0,75,0.00,,SKC,0.00,56.00,VWS V14.00,2013-04-04 00:07:00,
2013-04-03 19:12:00,45.4,38.0,30.01,SSW,204,10.0,16.0,75,0.00,,SKC,0.00,46.00,VWS V14.00,2013-04-04 00:12:00,
2013-04-03 19:17:00,45.2,37.8,30.01,SW,227,8.0,17.0,75,0.00,,SKC,0.00,33.00,VWS V14.00,2013-04-04 00:17:00,
2013-04-03 19:23:00,45.1,38.0,30.01,SSW,207,11.0,18.0,76,0.00,,SKC,0.00,25.00,VWS V14.00,2013-04-04 00:23:00,
2013-04-03 19:28:00,45.0,37.9,30.01,SSW,209,7.0,17.0,76,0.00,,SKC,0.00,19.00,VWS V14.00,2013-04-04 00:28:00,
2013-04-03 19:33:00,44.9,37.8,30.01,SSW,204,9.0,15.0,76,0.00,,SKC,0.00,16.00,VWS V14.00,2013-04-04 00:33:00,
2013-04-03 19:38:00,44.8,37.7,30.00,SSW,213,10.0,19.0,76,0.00,,SKC,0.00,11.00,VWS V14.00,2013-04-04 00:38:00,
2013-04-03 19:43:00,44.7,37.6,30.01,SSW,208,10.0,16.0,76,0.00,,SKC,0.00,7.00,VWS V14.00,2013-04-04 00:43:00,
2013-04-03 19:48:00,44.7,37.6,30.00,SW,215,5.0,13.0,76,0.00,,SKC,0.00,5.00,VWS V14.00,2013-04-04 00:48:00,
2013-04-03 19:53:00,44.5,37.4,30.00,SSW,203,10.0,14.0,76,0.00,,SKC,0.00,0.00,VWS V14.00,2013-04-04 00:53:00,
2013-04-03 19:58:00,44.4,37.3,30.00,SW,232,11.0,15.0,76,0.00,,SKC,0.00,0.00,VWS V14.00,2013-04-04 00:58:00,
2013-04-03 20:03:00,44.3,37.2,30.00,SSW,213,6.0,16.0,76,0.00,,SKC,0.00,0.00,VWS V14.00,2013-04-04 01:03:00,
2013-04-03 20:08:00,44.3,37.2,30.00,SW,225,10.0,16.0,76,0.00,,SKC,0.00,0.00,VWS V14.00,2013-04-04 01:08:00,
2013-04-03 20:13:00,44.2,37.1,29.99,WSW,240,10.0,16.0,76,0.00,,SKC,0.00,0.00,VWS V14.00,2013-04-04 01:13:00,
2013-04-03 20:18:00,44.1,37.0,29.99,SSW,211,12.0,16.0,76,0.00,,SKC,0.00,0.00,VWS V14.00,2013-04-04 01:18:00,
2013-04-03 20:23:00,44.0,36.9,29.99,SW,219,14.0,16.0,76,0.00,,SKC,0.00,0.00,VWS V14.00,2013-04-04 01:23:00,
2013-04-03 20:28:00,43.9,36.8,29.99,SW,219,15.0,15.0,76,0.00,,SKC,0.00,0.00,VWS V14.00,2013-04-04 01:28:00,
2013-04-03 20:34:00,43.7,36.6,29.99,SW,219,12.0,14.0,76,0.00,,SKC,0.00,0.00,VWS V14.00,2013-04-04 01:34:00,
2013-04-03 20:39:00,43.6,36.5,29.98,SW,218,10.0,17.0,76,0.00,,SKC,0.00,0.00,VWS V14.00,2013-04-04 01:39:00,
2013-04-03 20:46:00,43.4,36.3,29.98,West,261,13.0,16.0,76,0.00,,SKC,0.00,0.00,VWS V14.00,2013-04-04 01:46:00,
2013-04-03 20:51:00,43.3,36.3,29.98,SW,232,17.0,22.0,76,0.00,,SKC,0.00,0.00,VWS V14.00,2013-04-04 01:51:00,
2013-04-03 20:57:00,43.3,36.3,29.99,SW,233,12.0,18.0,76,0.00,,SKC,0.00,0.00,VWS V14.00,2013-04-04 01:57:00,
2013-04-03 21:02:00,43.1,36.1,29.98,SW,228,11.0,19.0,76,0.00,,SKC,0.00,0.00,VWS V14.00,2013-04-04 02:02:00,
2013-04-03 21:07:00,43.0,36.0,29.98,SSW,210,12.0,17.0,76,0.00,,SKC,0.00,0.00,VWS V14.00,2013-04-04 02:07:00,
2013-04-03 21:12:00,42.9,35.9,29.98,SSW,209,13.0,18.0,76,0.00,,SKC,0.00,0.00,VWS V14.00,2013-04-04 02:12:00,
2013-04-03 21:17:00,42.7,35.7,29.98,SW,229,12.0,18.0,76,0.00,,SKC,0.00,0.00,VWS V14.00,2013-04-04 02:17:00,
2013-04-03 21:22:00,42.5,35.8,29.98,SSW,209,8.0,17.0,77,0.00,,SKC,0.00,0.00,VWS V14.00,2013-04-04 02:22:00,
2013-04-03 21:28:00,42.4,35.7,29.98,SW,230,11.0,19.0,77,0.00,,SKC,0.00,0.00,VWS V14.00,2013-04-04 02:28:00,
2013-04-03 21:33:00,42.3,35.6,29.98,SW,221,7.0,14.0,77,0.00,,SKC,0.00,0.00,VWS V14.00,2013-04-04 02:33:00,
2013-04-03 21:38:00,42.2,35.5,29.99,SW,231,15.0,18.0,77,0.00,,SKC,0.00,0.00,VWS V14.00,2013-04-04 02:38:00,
2013-04-03 21:43:00,42.3,35.6,29.99,SSW,213,7.0,20.0,77,0.00,,SKC,0.00,0.00,VWS V14.00,2013-04-04 02:43:00,
2013-04-03 21:48:00,42.4,35.4,29.98,WSW,240,11.0,21.0,76,0.00,,SKC,0.00,0.00,VWS V14.00,2013-04-04 02:48:00,
2013-04-03 21:53:00,42.4,35.4,29.99,SSW,197,10.0,19.0,76,0.00,,SKC,0.00,0.00,VWS V14.00,2013-04-04 02:53:00,
2013-04-03 21:58:00,42.4,35.4,29.98,SW,233,13.0,19.0,76,0.00,,SKC,0.00,0.00,VWS V14.00,2013-04-04 02:58:00,
2013-04-03 22:03:00,42.4,35.4,29.98,SW,215,10.0,19.0,76,0.00,,SKC,0.00,0.00,VWS V14.00,2013-04-04 03:03:00,
2013-04-03 22:08:00,42.4,35.0,29.97,SW,230,14.0,21.0,75,0.00,,SKC,0.00,0.00,VWS V14.00,2013-04-04 03:08:00,
2013-04-03 22:13:00,42.4,35.0,29.97,SW,220,15.0,16.0,75,0.00,,SKC,0.00,0.00,VWS V14.00,2013-04-04 03:13:00,
2013-04-03 22:18:00,42.3,35.0,29.97,SW,228,10.0,16.0,75,0.00,,SKC,0.00,0.00,VWS V14.00,2013-04-04 03:18:00,
2013-04-03 22:24:00,42.3,35.0,29.97,SW,232,9.0,16.0,75,0.00,,SKC,0.00,0.00,VWS V14.00,2013-04-04 03:24:00,
2013-04-03 22:29:00,42.3,35.0,29.97,SSW,205,12.0,18.0,75,0.00,,SKC,0.00,0.00,VWS V14.00,2013-04-04 03:29:00,
2013-04-03 22:34:00,42.4,35.0,29.97,SW,227,10.0,15.0,75,0.00,,SKC,0.00,0.00,VWS V14.00,2013-04-04 03:34:00,
2013-04-03 22:39:00,42.5,34.8,29.97,WSW,239,13.0,17.0,74,0.00,,SKC,0.00,0.00,VWS V14.00,2013-04-04 03:39:00,
2013-04-03 22:44:00,42.5,34.8,29.97,SW,236,16.0,16.0,74,0.00,,SKC,0.00,0.00,VWS V14.00,2013-04-04 03:44:00,
2013-04-03 22:51:00,42.5,34.8,29.97,WSW,254,19.0,22.0,74,0.00,,SKC,0.00,0.00,VWS V14.00,2013-04-04 03:51:00,
2013-04-03 22:58:00,42.7,34.7,29.97,SW,226,17.0,22.0,73,0.00,,SKC,0.00,0.00,VWS V14.00,2013-04-04 03:58:00,
2013-04-03 23:00:00,42.7,34.7,29.97,SW,232,15.0,22.0,73,0.00,,SKC,0.00,0.00,VWS V14.00,2013-04-04 04:00:00,
2013-04-03 23:01:00,42.8,34.8,29.96,SW,230,13.0,22.0,73,0.00,,SKC,0.00,0.00,VWS V14.00,2013-04-04 04:01:00,
2013-04-03 23:03:00,42.8,35.8,29.97,SW,236,13.0,22.0,76,0.00,,SKC,0.00,0.00,VWS V14.00,2013-04-04 04:03:00,
2013-04-03 23:08:00,42.9,34.5,29.97,WSW,249,16.0,21.0,72,0.00,,SKC,0.00,0.00,VWS V14.00,2013-04-04 04:08:00,
2013-04-03 23:13:00,42.9,34.5,29.96,WSW,250,14.0,22.0,72,0.00,,SKC,0.00,0.00,VWS V14.00,2013-04-04 04:13:00,
2013-04-03 23:17:00,43.0,34.6,29.96,SW,226,17.0,21.0,72,0.00,,SKC,0.00,0.00,VWS V14.00,2013-04-04 04:17:00,
2013-04-03 23:22:00,43.1,34.7,29.96,SW,232,15.0,22.0,72,0.00,,SKC,0.00,0.00,VWS V14.00,2013-04-04 04:22:00,
2013-04-03 23:27:00,43.1,34.7,29.95,SW,230,18.0,21.0,72,0.00,,SKC,0.00,0.00,VWS V14.00,2013-04-04 04:27:00,
2013-04-03 23:32:00,43.1,34.3,29.96,SW,217,12.0,22.0,71,0.00,,SKC,0.00,0.00,VWS V14.00,2013-04-04 04:32:00,
2013-04-03 23:37:00,43.0,34.2,29.96,WSW,248,12.0,19.0,71,0.00,,SKC,0.00,0.00,VWS V14.00,2013-04-04 04:37:00,
2013-04-03 23:42:00,43.0,34.2,29.97,WSW,250,11.0,21.0,71,0.00,,SKC,0.00,0.00,VWS V14.00,2013-04-04 04:42:00,
2013-04-03 23:47:00,42.9,34.2,29.96,SW,229,11.0,23.0,71,0.00,,SKC,0.00,0.00,VWS V14.00,2013-04-04 04:47:00,
2013-04-03 23:52:00,42.9,34.2,29.96,WSW,242,12.0,20.0,71,0.00,,SKC,0.00,0.00,VWS V14.00,2013-04-04 04:52:00,
2013-04-03 23:57:00,42.9,34.2,29.97,WSW,247,17.0,21.0,71,0.00,,SKC,0.00,0.00,VWS V14.00,2013-04-04 04:57:00,